Wooster, OH

9:13 AM EST on December 11, 2019 (GMT -0500)
Wayne County

Weather History for KBJJ - October, 2019

Change the Weather History Date:

Friday, October 4, 2019

  Actual Average Record
Temperature  
Mean Temperature 56 °F -  
Max Temperature 63 °F 65 °F 84 °F (2007)
Min Temperature 50 °F 40 °F 36 °F (2004)
Degree Days  
Heating Degree Days 9    
Growing Degree Days 6 (Base 50)    
Moisture  
Dew Point 47 °F    
Average Humidity 71    
Maximum Humidity 81    
Minimum Humidity 53    
Precipitation  
Precipitation 0.01 in - - ()
Sea Level Pressure  
Sea Level Pressure 30.26 in    
Wind  
Wind Speed 9 mph (North)    
Max Wind Speed 17 mph    
Max Gust Speed 24 mph    
Visibility 10 miles    
Events Rain    
Averages and records for this station are not official NWS values.
T = Trace of Precipitation, MM = Missing Value Source: NWS Daily Summary

Daily Weather History Graph

Daily Weather History Graph

Search for Another Location

Airport or City:

Astronomy

Oct. 04, 2019 Rise Set
Actual Time 7:26 AM EDT 7:04 PM EDT
Civil Twilight 6:59 AM EDT 7:32 PM EDT
Nautical Twilight 6:27 AM EDT 8:04 PM EDT
Astronomical Twilight 5:55 AM EDT 8:36 PM EDT
Moon 1:59 PM EDT (10/4) 11:30 PM EDT (10/4)
Length of Visible Light 12h 32m
Length of Day
11h 37m
Waxing Crescent, 39% of the Moon is Illuminated
Oct 4
Waxing Crescent
Oct 5
First Quarter
Oct 13
Full
Oct 21
Last Quarter
Oct 27
New

Hourly Weather History & Observations

Time (EDT) Temp. Dew Point Humidity Pressure Visibility Wind Dir Wind Speed Gust Speed Precip Events Conditions
12:56 AM 59.0 °F 53.1 °F 81% 30.10 in 10.0 mi NW 5.8 mph - N/A   Mostly Cloudy
1:48 AM 59.0 °F 52.0 °F 78% 30.13 in 10.0 mi NNW 10.4 mph - N/A   Overcast
1:56 AM 59.0 °F 51.1 °F 75% 30.11 in 10.0 mi NNW 11.5 mph 19.6 mph N/A   Mostly Cloudy
2:56 AM 57.9 °F 48.9 °F 72% 30.14 in 10.0 mi NNW 13.8 mph 19.6 mph N/A   Overcast
3:56 AM 57.0 °F 48.0 °F 72% 30.14 in 10.0 mi NW 8.1 mph - N/A   Mostly Cloudy
4:56 AM 55.9 °F 46.9 °F 72% 30.16 in 10.0 mi NW 8.1 mph - N/A   Overcast
5:56 AM 55.0 °F 46.9 °F 74% 30.18 in 10.0 mi NW 6.9 mph - N/A   Overcast
6:56 AM 55.0 °F 46.9 °F 74% 30.20 in 10.0 mi NW 6.9 mph - N/A   Overcast
7:56 AM 54.0 °F 48.0 °F 80% 30.23 in 10.0 mi NNW 5.8 mph - N/A   Overcast
8:56 AM 55.9 °F 48.9 °F 77% 30.25 in 10.0 mi North 9.2 mph - N/A   Overcast
9:56 AM 57.0 °F 48.9 °F 74% 30.27 in 10.0 mi North 9.2 mph - N/A   Overcast
10:56 AM 59.0 °F 50.0 °F 72% 30.28 in 10.0 mi North 5.8 mph - N/A   Overcast
11:11 AM 57.0 °F 50.0 °F 77% 30.29 in 7.0 mi North 17.3 mph - 0.00 in Rain Light Rain
11:28 AM 57.0 °F 51.1 °F 81% 30.29 in 10.0 mi North 11.5 mph 21.9 mph 0.00 in   Overcast
11:56 AM 61.0 °F 51.1 °F 70% 30.29 in 10.0 mi North 13.8 mph 19.6 mph 0.01 in   Overcast
12:56 PM 60.1 °F 48.0 °F 64% 30.30 in 10.0 mi NNE 6.9 mph 19.6 mph N/A   Mostly Cloudy
1:56 PM 62.1 °F 46.9 °F 58% 30.30 in 10.0 mi North 15.0 mph 24.2 mph N/A   Mostly Cloudy
2:56 PM 60.1 °F 45.0 °F 57% 30.29 in 10.0 mi North 16.1 mph 21.9 mph N/A   Overcast
3:56 PM 62.1 °F 45.0 °F 53% 30.30 in 10.0 mi NNE 11.5 mph - N/A   Overcast
4:56 PM 60.1 °F 46.0 °F 60% 30.30 in 10.0 mi NE 11.5 mph 18.4 mph N/A   Clear
5:56 PM 57.9 °F 43.0 °F 58% 30.30 in 10.0 mi NNE 10.4 mph - N/A   Clear
6:56 PM 55.0 °F 44.1 °F 67% 30.32 in 10.0 mi NNE 11.5 mph - N/A   Partly Cloudy
7:56 PM 53.1 °F 45.0 °F 74% 30.33 in 10.0 mi NNE 8.1 mph - N/A   Partly Cloudy
8:56 PM 53.1 °F 44.1 °F 71% 30.34 in 10.0 mi NE 6.9 mph - N/A   Mostly Cloudy
9:56 PM 52.0 °F 44.1 °F 74% 30.35 in 10.0 mi ENE 8.1 mph - N/A   Overcast
10:56 PM 50.0 °F 43.0 °F 77% 30.36 in 10.0 mi ENE 6.9 mph - N/A   Overcast
11:56 PM 50.0 °F 42.1 °F 74% 30.36 in 10.0 mi East 6.9 mph - N/A   Overcast